����,���ϕ���(m/s),���ϕ���,�ő�u�ԕ���(m/s),�ő啗��������,�C��(��),���x(%),10���Ԉړ��ώZ�J��(mm),1���Ԉړ��ώZ�J��(mm),���J��(mm),�݌v�J��(mm)
2023-11-06T00:00:00+09:00,0.8,�k,1.7,�k��,18,85.3,0,0,0,0
2023-11-06T00:01:00+09:00,0.8,�k,1.7,�k��,17.9,85,0,0,0,0
2023-11-06T00:02:00+09:00,0.7,�k�k��,1.7,�k��,18,85.5,0,0,0,0
2023-11-06T00:03:00+09:00,0.6,�k��,1.6,�k��,18,85.6,0,0,0,0
2023-11-06T00:04:00+09:00,0.6,�k��,1.3,���k��,18,85.2,0,0,0,0
2023-11-06T00:05:00+09:00,0.7,�k��,1.4,���쐼,17.9,84.9,0,0,0,0
2023-11-06T00:06:00+09:00,0.7,���k��,1.5,���쐼,17.9,85,0,0,0,0
2023-11-06T00:07:00+09:00,0.8,���k��,1.7,��,17.9,85.1,0,0,0,0
2023-11-06T00:08:00+09:00,0.8,���k��,1.7,��,17.9,85.2,0,0,0,0
2023-11-06T00:09:00+09:00,0.9,��,1.7,��,18,85.6,0,0,0,0
2023-11-06T00:10:00+09:00,0.9,��,1.7,��,18.1,85.9,0,0,0,0
2023-11-06T00:11:00+09:00,1,��,1.7,��,18.1,85.6,0,0,0,0
2023-11-06T00:12:00+09:00,1,��,1.7,��,18.2,85.5,0,0,0,0
2023-11-06T00:13:00+09:00,1,��,1.7,��,18.3,85.8,0,0,0,0
2023-11-06T00:14:00+09:00,0.9,��,1.7,��,18.4,85.2,0,0,0,0
2023-11-06T00:15:00+09:00,0.9,��,2,�쓌,18.2,84.3,0,0,0,0
2023-11-06T00:16:00+09:00,0.9,���쐼,2,�쓌,18.3,84.6,0,0,0,0
2023-11-06T00:17:00+09:00,0.8,��,2,�쓌,18.5,85.3,0,0,0,0
2023-11-06T00:18:00+09:00,0.8,���k��,2,�쓌,18.7,85.2,0,0,0,0
2023-11-06T00:19:00+09:00,0.7,���k��,2,�쓌,18.7,84.3,0,0,0,0
2023-11-06T00:20:00+09:00,0.8,���k��,2,�쓌,18.5,83,0,0,0,0
2023-11-06T00:21:00+09:00,0.8,��,2,�쓌,18.3,82.5,0,0,0,0
2023-11-06T00:22:00+09:00,0.7,��쐼,2,�쓌,18.3,83.4,0,0,0,0
2023-11-06T00:23:00+09:00,0.7,��쐼,2,�쓌,18.6,84.6,0,0,0,0
2023-11-06T00:24:00+09:00,0.7,��쐼,2,�쓌,18.7,84.7,0,0,0,0
2023-11-06T00:25:00+09:00,0.6,�쐼,1.4,���쓌,18.7,84,0,0,0,0
2023-11-06T00:26:00+09:00,0.5,�쐼,1.4,���쓌,18.5,83.5,0,0,0,0
2023-11-06T00:27:00+09:00,0.5,��쐼,1.4,���쓌,18.4,83,0,0,0,0
2023-11-06T00:28:00+09:00,0.4,��,1.4,���쓌,18.3,83.3,0,0,0,0
2023-11-06T00:29:00+09:00,0.4,��,1.4,���쓌,18.4,84,0,0,0,0
2023-11-06T00:30:00+09:00,0.3,��쐼,0.9,��쓌,18.5,84.3,0,0,0,0
2023-11-06T00:31:00+09:00,0.3,���쐼,0.7,���쐼,18.5,84.4,0,0,0,0
2023-11-06T00:32:00+09:00,0.3,�k�k��,0.7,���쐼,18.4,83.8,0,0,0,0
2023-11-06T00:33:00+09:00,0.3,�k,0.7,���쐼,18.2,83.4,0,0,0,0
2023-11-06T00:34:00+09:00,0.3,�k,0.7,�k��,18.1,83.6,0,0,0,0
2023-11-06T00:35:00+09:00,0.3,�k,0.7,�k��,18,83.8,0,0,0,0
2023-11-06T00:36:00+09:00,0.4,�k�k��,0.7,�k��,17.8,84,0,0,0,0
2023-11-06T00:37:00+09:00,0.4,�k�k��,0.7,�k��,17.9,85,0,0,0,0
2023-11-06T00:38:00+09:00,0.4,�k�k��,0.7,�k��,18,85.6,0,0,0,0
2023-11-06T00:39:00+09:00,0.4,�k�k��,0.7,�k��,17.9,85.4,0,0,0,0
2023-11-06T00:40:00+09:00,0.4,�k,0.7,�k��,17.9,85.6,0,0,0,0
2023-11-06T00:41:00+09:00,0.4,�k�k��,0.7,�k��,17.9,85.5,0,0,0,0
2023-11-06T00:42:00+09:00,0.4,�k�k��,0.8,�k�k��,17.9,85.8,0,0,0,0
2023-11-06T00:43:00+09:00,0.5,�k�k��,1.3,�k��,17.8,85.6,0,0,0,0
2023-11-06T00:44:00+09:00,0.5,�k�k��,1.3,�k��,17.7,85.2,0,0,0,0
2023-11-06T00:45:00+09:00,0.5,�k,1.6,�k��,17.9,86.3,0,0,0,0
2023-11-06T00:46:00+09:00,0.6,�k,1.6,�k��,17.8,85.8,0,0,0,0
2023-11-06T00:47:00+09:00,0.7,�k�k��,1.7,��,17.7,85.6,0,0,0,0
2023-11-06T00:48:00+09:00,0.8,�k�k��,1.8,���쐼,17.7,85.8,0,0,0,0
2023-11-06T00:49:00+09:00,0.8,�k��,1.8,���쐼,17.8,86.2,0,0,0,0
2023-11-06T00:50:00+09:00,0.9,���k��,1.8,���쐼,17.7,86.2,0,0,0,0
2023-11-06T00:51:00+09:00,0.9,���k��,1.8,���쐼,17.7,86.3,0,0,0,0
2023-11-06T00:52:00+09:00,0.9,���k��,1.8,���쐼,17.7,86.5,0,0,0,0
2023-11-06T00:53:00+09:00,0.8,���k��,1.8,���쐼,17.8,86.7,0,0,0,0
2023-11-06T00:54:00+09:00,0.7,��,1.8,���쐼,17.9,87.3,0,0,0,0
2023-11-06T00:55:00+09:00,0.7,��,1.8,���쐼,18.2,88.2,0,0,0,0
2023-11-06T00:56:00+09:00,0.7,��,1.8,���쐼,18.5,88.2,0,0,0,0
2023-11-06T00:57:00+09:00,0.7,��,1.8,���쐼,18.5,86.9,0,0,0,0
2023-11-06T00:58:00+09:00,0.7,��,1.7,�쓌,18.3,85.4,0,0,0,0
2023-11-06T00:59:00+09:00,0.6,��,1.7,�쓌,18.4,85.8,0,0,0,0
2023-11-06T01:00:00+09:00,0.5,���쐼,1.7,�쓌,18.6,86.2,0,0,0,0
2023-11-06T01:01:00+09:00,0.5,��,1.8,���k��,18.7,85.9,0,0,0,0
2023-11-06T01:02:00+09:00,0.8,��,2.8,���k��,18.9,85.7,0,0,0,0
2023-11-06T01:03:00+09:00,0.9,��,2.8,���k��,19,85.2,0,0,0,0
2023-11-06T01:04:00+09:00,1,���쐼,2.8,���k��,18.9,83.7,0,0,0,0
2023-11-06T01:05:00+09:00,1.1,�쐼,2.8,���k��,18.7,82.6,0,0,0,0
2023-11-06T01:06:00+09:00,1,�쐼,2.8,���k��,18.5,82.3,0,0,0,0
2023-11-06T01:07:00+09:00,1,���쐼,2.8,���k��,18.5,82.8,0,0,0,0
2023-11-06T01:08:00+09:00,1,��,2.8,���k��,18.4,82.8,0,0,0,0
2023-11-06T01:09:00+09:00,1.1,��,2.8,���k��,18.3,83,0,0,0,0
2023-11-06T01:10:00+09:00,1.2,��,2.8,���k��,18.2,83.4,0,0,0,0
2023-11-06T01:11:00+09:00,1.3,��,2.8,���k��,18.3,84.5,0,0,0,0
2023-11-06T01:12:00+09:00,1.3,��,2.7,���k��,18.4,84.7,0,0,0,0
2023-11-06T01:13:00+09:00,1.3,���쐼,2.5,���쐼,18.3,84.2,0,0,0,0
2023-11-06T01:14:00+09:00,1.3,���쐼,2.5,���쐼,18.2,84.4,0,0,0,0
2023-11-06T01:15:00+09:00,1.4,��,2.5,���쐼,18.2,84.5,0,0,0,0
2023-11-06T01:16:00+09:00,1.6,��,2.5,���쐼,18.2,84.8,0,0,0,0
2023-11-06T01:17:00+09:00,1.7,��,2.5,���쐼,18.2,85.2,0,0,0,0
2023-11-06T01:18:00+09:00,1.8,���쐼,2.6,��쐼,18.4,85.9,0,0,0,0
2023-11-06T01:19:00+09:00,1.9,���쐼,2.6,��쐼,18.4,85.7,0,0,0,0
2023-11-06T01:20:00+09:00,1.9,���쐼,2.6,��쐼,18.6,85.8,0,0,0,0
2023-11-06T01:21:00+09:00,1.9,�쐼,2.6,��쐼,18.7,85.8,0,0,0,0
2023-11-06T01:22:00+09:00,1.8,�쐼,2.6,��쐼,18.9,85.4,0,0,0,0
2023-11-06T01:23:00+09:00,1.8,���쐼,2.6,��쐼,19,84.8,0,0,0,0
2023-11-06T01:24:00+09:00,1.8,���쐼,2.6,��쐼,19.1,83.9,0,0,0,0
2023-11-06T01:25:00+09:00,1.8,���쐼,2.6,��쐼,19.1,83.1,0,0,0,0
2023-11-06T01:26:00+09:00,1.7,���쐼,2.6,��쐼,19.1,82.5,0,0,0,0
2023-11-06T01:27:00+09:00,1.6,���쐼,2.6,��쐼,19,81.8,0,0,0,0
2023-11-06T01:28:00+09:00,1.5,���쐼,2.5,��쐼,18.8,81.2,0,0,0,0
2023-11-06T01:29:00+09:00,1.4,���쐼,2.1,�쐼,18.7,81.5,0,0,0,0
2023-11-06T01:30:00+09:00,1.4,��,2,���k��,18.7,82,0,0,0,0
2023-11-06T01:31:00+09:00,1.3,��,2,���k��,18.7,82.5,0,0,0,0
2023-11-06T01:32:00+09:00,1.3,���k��,2,���k��,18.4,81.4,0,0,0,0
2023-11-06T01:33:00+09:00,,,,,,,,,,
2023-11-06T01:34:00+09:00,1.2,���k��,2,���k��,18.1,82.4,0,0,0,0
2023-11-06T01:35:00+09:00,1,�k��,1.8,��,18,83.2,0,0,0,0
2023-11-06T01:36:00+09:00,0.9,�k��,1.8,��,18,83.9,0,0,0,0
2023-11-06T01:37:00+09:00,0.8,�k�k��,1.7,���k��,18,84.7,0,0,0,0
2023-11-06T01:38:00+09:00,0.7,�k�k��,1.7,���k��,18.1,85.3,0,0,0,0
2023-11-06T01:39:00+09:00,0.6,�k,1.7,���k��,18,85,0,0,0,0
2023-11-06T01:40:00+09:00,0.6,�k�k��,1.6,���k��,17.8,84.8,0,0,0,0
2023-11-06T01:41:00+09:00,0.6,�k��,1.3,�k�k��,17.8,85.3,0,0,0,0
2023-11-06T01:42:00+09:00,0.5,�k�k��,1.3,�k�k��,17.9,85.9,0,0,0,0
2023-11-06T01:43:00+09:00,0.5,�k�k��,1.1,�k�k��,17.9,86.2,0,0,0,0
2023-11-06T01:44:00+09:00,0.5,�k�k��,1.1,�k�k��,18.1,86.9,0,0,0,0
2023-11-06T01:45:00+09:00,0.5,�k,1.1,�k�k��,18.2,87.1,0,0,0,0
2023-11-06T01:46:00+09:00,0.6,�k�k��,1.4,��쐼,18.1,86.3,0,0,0,0
2023-11-06T01:47:00+09:00,0.7,�k��,2,��쐼,18.1,86,0,0,0,0
2023-11-06T01:48:00+09:00,0.8,�k��,2,��쐼,18.3,86.7,0,0,0,0
2023-11-06T01:49:00+09:00,0.9,��,2,��쐼,18.5,86.9,0,0,0,0
2023-11-06T01:50:00+09:00,1,��,2.1,���쐼,18.6,86.2,0,0,0,0
2023-11-06T01:51:00+09:00,1.2,���쐼,2.8,��,18.8,86.2,0,0,0,0
2023-11-06T01:52:00+09:00,1.3,���쐼,2.8,��,18.8,85.2,0,0,0,0
2023-11-06T01:53:00+09:00,1.4,�쐼,2.8,��,18.6,83.8,0,0,0,0
2023-11-06T01:54:00+09:00,1.4,�쐼,2.8,��,18.6,83.6,0,0,0,0
2023-11-06T01:55:00+09:00,1.4,�쐼,2.8,��,18.6,84,0,0,0,0
2023-11-06T01:56:00+09:00,1.5,���쐼,2.8,��,18.6,83.9,0,0,0,0
2023-11-06T01:57:00+09:00,1.5,���쐼,2.8,��,18.6,83.6,0,0,0,0
2023-11-06T01:58:00+09:00,1.5,���쐼,2.8,��,18.5,83.4,0,0,0,0
2023-11-06T01:59:00+09:00,1.6,���쐼,2.8,��,18.3,82.8,0,0,0,0
2023-11-06T02:00:00+09:00,1.6,���쐼,2.8,��,18.3,83.4,0,0,0,0
2023-11-06T02:01:00+09:00,1.5,���쐼,2.8,��쐼,18.5,84.5,0,0,0,0
2023-11-06T02:02:00+09:00,1.4,���쐼,2.8,��쐼,18.6,84.4,0,0,0,0
2023-11-06T02:03:00+09:00,1.3,���쐼,2.8,��쐼,18.7,84.1,0,0,0,0
2023-11-06T02:04:00+09:00,1.4,���쐼,2.8,��쐼,18.7,84.1,0,0,0,0
2023-11-06T02:05:00+09:00,1.4,���쐼,2.8,��쐼,18.8,83.8,0,0,0,0
2023-11-06T02:06:00+09:00,1.4,�쐼,2.8,��쐼,18.8,83.5,0,0,0,0
2023-11-06T02:07:00+09:00,1.3,�쐼,2.8,��쐼,18.8,83,0,0,0,0
2023-11-06T02:08:00+09:00,1.2,�쐼,2.8,��쐼,18.7,82.5,0,0,0,0
2023-11-06T02:09:00+09:00,1,�쐼,2.2,��쐼,18.6,82.5,0,0,0,0
2023-11-06T02:10:00+09:00,0.9,�쐼,2.2,��쐼,18.6,82.7,0,0,0,0
2023-11-06T02:11:00+09:00,0.9,�쐼,2.2,��쐼,18.7,83.4,0,0,0,0
2023-11-06T02:12:00+09:00,0.9,�쐼,2.2,��쐼,18.9,83.6,0,0,0,0
2023-11-06T02:13:00+09:00,0.9,�쐼,2.2,��쐼,19,83.2,0,0,0,0
2023-11-06T02:14:00+09:00,0.8,�쐼,2.1,��,18.9,82.5,0,0,0,0
2023-11-06T02:15:00+09:00,0.7,�쐼,2,��,18.7,81.8,0,0,0,0
2023-11-06T02:16:00+09:00,0.7,�쐼,2,��,18.7,81.9,0,0,0,0
2023-11-06T02:17:00+09:00,0.7,�쐼,2,��,18.6,81.9,0,0,0,0
2023-11-06T02:18:00+09:00,0.8,�쐼,2,��,18.6,83,0,0,0,0
2023-11-06T02:19:00+09:00,0.7,�쐼,2,��,18.8,83.5,0,0,0,0
2023-11-06T02:20:00+09:00,0.7,�쐼,2,��,18.9,83.5,0,0,0,0
2023-11-06T02:21:00+09:00,0.7,�쐼,2,��,18.9,83,0,0,0,0
2023-11-06T02:22:00+09:00,0.7,�쐼,2,��,18.9,82.7,0,0,0,0
2023-11-06T02:23:00+09:00,0.7,�쐼,1.7,���쐼,18.8,82.3,0,0,0,0
2023-11-06T02:24:00+09:00,0.7,���쐼,1.7,���쐼,18.7,82,0,0,0,0
2023-11-06T02:25:00+09:00,0.6,��,1.5,��쓌,18.7,82.3,0,0,0,0
2023-11-06T02:26:00+09:00,0.5,���k��,1.5,��쓌,18.6,82.3,0,0,0,0
2023-11-06T02:27:00+09:00,0.5,�k�k��,1.2,�k�k��,18.7,83.3,0,0,0,0
2023-11-06T02:28:00+09:00,0.4,�k,1.2,�k�k��,18.6,83.1,0,0,0,0
2023-11-06T02:29:00+09:00,0.4,�k,1.2,�k�k��,18.6,83.2,0,0,0,0
2023-11-06T02:30:00+09:00,0.5,�k,1.2,�k�k��,18.6,83.6,0,0,0,0
2023-11-06T02:31:00+09:00,0.5,�k�k��,1.2,�k�k��,18.5,83.3,0,0,0,0
2023-11-06T02:32:00+09:00,0.5,���k��,1.2,�k�k��,18.5,83.6,0,0,0,0
2023-11-06T02:33:00+09:00,0.4,���쐼,1,�쐼,18.3,83.4,0,0,0,0
2023-11-06T02:34:00+09:00,0.4,���쐼,1,�쐼,18.4,84.1,0,0,0,0
2023-11-06T02:35:00+09:00,0.5,���쐼,1.1,���k��,18.5,84.5,0,0,0,0
2023-11-06T02:36:00+09:00,0.6,���쐼,1.7,��,18.5,84.2,0,0,0,0
2023-11-06T02:37:00+09:00,0.7,���쐼,1.9,��,18.3,83.9,0,0,0,0
2023-11-06T02:38:00+09:00,0.9,��,2.4,���쐼,18.3,84,0,0,0,0
2023-11-06T02:39:00+09:00,1,��,2.4,���쐼,18.2,84.4,0,0,0,0
2023-11-06T02:40:00+09:00,1.1,��,2.4,���쐼,18.1,84.2,0,0,0,0
2023-11-06T02:41:00+09:00,1.2,��,2.4,���쐼,18,84.3,0,0,0,0
2023-11-06T02:42:00+09:00,1.2,��,2.4,���쐼,18,84.7,0,0,0,0
2023-11-06T02:43:00+09:00,1.3,��,2.4,���쐼,18.1,85.2,0,0,0,0
2023-11-06T02:44:00+09:00,1.4,��,2.4,���쐼,18.1,85.6,0,0,0,0
2023-11-06T02:45:00+09:00,1.4,��,2.4,���쐼,18.3,86.1,0,0,0,0
2023-11-06T02:46:00+09:00,1.4,��,2.4,���쐼,18.5,86.5,0,0,0,0
2023-11-06T02:47:00+09:00,1.3,��,2.4,���쐼,18.4,85.3,0,0,0,0
2023-11-06T02:48:00+09:00,1.3,���쐼,2.3,���k��,18.6,85.9,0,0,0,0
2023-11-06T02:49:00+09:00,1.2,���쐼,1.8,���쐼,18.7,86,0,0,0,0
2023-11-06T02:50:00+09:00,1.2,���쐼,2.3,���k��,18.7,85,0,0,0,0
2023-11-06T02:51:00+09:00,1.3,���쐼,2.3,���k��,18.9,85.9,0,0,0,0
2023-11-06T02:52:00+09:00,1.3,���쐼,2.3,���k��,18.9,84.7,0,0,0,0
2023-11-06T02:53:00+09:00,1.2,���쐼,2.3,���k��,18.6,82.5,0,0,0,0
2023-11-06T02:54:00+09:00,1.2,�쐼,2.3,���k��,18.4,82.5,0,0,0,0
2023-11-06T02:55:00+09:00,1.2,�쐼,2.5,���쐼,18.4,83.5,0,0,0,0
2023-11-06T02:56:00+09:00,1.3,���쐼,2.6,���k��,18.8,85.5,0,0,0,0
2023-11-06T02:57:00+09:00,1.4,���쐼,2.6,���k��,18.4,83,0,0,0,0
2023-11-06T02:58:00+09:00,1.4,���쐼,2.6,���k��,18.1,82,0,0,0,0
2023-11-06T02:59:00+09:00,1.5,���쐼,3.3,���쐼,18.3,84.3,0,0,0,0
2023-11-06T03:00:00+09:00,1.5,���쐼,3.3,���쐼,18.2,83.9,0,0,0,0
2023-11-06T03:01:00+09:00,1.4,���쐼,3.3,���쐼,18.3,84.6,0,0,0,0
2023-11-06T03:02:00+09:00,1.5,���쐼,3.3,���쐼,18.5,85.5,0,0,0,0
2023-11-06T03:03:00+09:00,1.5,���쐼,3.3,���쐼,18.3,84.4,0,0,0,0
2023-11-06T03:04:00+09:00,1.6,��,3.3,���쐼,18.2,84.3,0,0,0,0
2023-11-06T03:05:00+09:00,1.6,��,3.3,���쐼,18.2,84.3,0,0,0,0
2023-11-06T03:06:00+09:00,1.5,��,3.3,���쐼,18.2,84.8,0,0,0,0
2023-11-06T03:07:00+09:00,1.5,���쐼,3.3,���쐼,18.1,84.9,0,0,0,0
2023-11-06T03:08:00+09:00,1.4,���쐼,3.3,���쐼,18,84.5,0,0,0,0
2023-11-06T03:09:00+09:00,1.4,���쐼,2.4,��쓌,17.7,84.4,0,0,0,0
2023-11-06T03:10:00+09:00,1.4,�쐼,2.4,��쓌,17.7,85,0,0,0,0
2023-11-06T03:11:00+09:00,1.4,�쐼,2.4,��쓌,17.8,86.4,0,0,0,0
2023-11-06T03:12:00+09:00,1.3,��쐼,2.4,��쓌,18.1,87.9,0,0,0,0
2023-11-06T03:13:00+09:00,1.2,��쐼,2.4,��쓌,18.5,88.2,0,0,0,0
2023-11-06T03:14:00+09:00,1.1,��쐼,2.4,��쓌,18.8,87.9,0,0,0,0
2023-11-06T03:15:00+09:00,1,��쐼,2.4,��쓌,18.9,86.7,0,0,0,0
2023-11-06T03:16:00+09:00,0.8,��쐼,2.4,��쓌,18.6,84.4,0,0,0,0
2023-11-06T03:17:00+09:00,0.8,��쐼,2.4,��쓌,18.5,83.9,0,0,0,0
2023-11-06T03:18:00+09:00,0.7,�쐼,2.4,��쓌,18.8,85.1,0,0,0,0
2023-11-06T03:19:00+09:00,0.7,�쐼,2.4,��,19,85.3,0,0,0,0
2023-11-06T03:20:00+09:00,0.6,���쐼,1.7,��,19.1,84.2,0,0,0,0
2023-11-06T03:21:00+09:00,0.5,���쐼,1.1,���k��,18.9,82.8,0,0,0,0
2023-11-06T03:22:00+09:00,0.5,���쐼,1.1,���k��,18.7,81.7,0,0,0,0
2023-11-06T03:23:00+09:00,0.5,���쐼,1.1,���k��,18.5,81.5,0,0,0,0
2023-11-06T03:24:00+09:00,0.4,��,1.1,���k��,18.3,81.9,0,0,0,0
2023-11-06T03:25:00+09:00,0.4,��,1.1,���k��,18.2,82.6,0,0,0,0
2023-11-06T03:26:00+09:00,0.5,��,1.1,���k��,18.3,83.4,0,0,0,0
2023-11-06T03:27:00+09:00,0.5,���k��,1.1,���k��,18.4,84.5,0,0,0,0
2023-11-06T03:28:00+09:00,0.6,���k��,1.2,�k�k��,18.7,85.6,0,0,0,0
2023-11-06T03:29:00+09:00,0.6,���k��,1.5,��,18.7,84.7,0,0,0,0
2023-11-06T03:30:00+09:00,0.8,���k��,2.4,���쐼,18.7,84.3,0,0,0,0
2023-11-06T03:31:00+09:00,0.9,���k��,2.5,���쐼,18.6,83.6,0,0,0,0
2023-11-06T03:32:00+09:00,1.1,���k��,2.6,�쐼,18.7,84.3,0,0,0,0
2023-11-06T03:33:00+09:00,1.2,���k��,2.6,�쐼,18.8,84,0,0,0,0
2023-11-06T03:34:00+09:00,1.4,��,2.9,��,18.8,83.9,0,0,0,0
2023-11-06T03:35:00+09:00,1.6,��,2.9,��,18.8,83.6,0,0,0,0
2023-11-06T03:36:00+09:00,1.8,��,3.2,��,18.8,83,0,0,0,0
2023-11-06T03:37:00+09:00,2,��,3.3,���쐼,18.8,83.3,0,0,0,0
2023-11-06T03:38:00+09:00,2.2,��,3.3,���쐼,18.8,83.6,0,0,0,0
2023-11-06T03:39:00+09:00,2.3,��,3.3,���쐼,18.9,83.4,0,0,0,0
2023-11-06T03:40:00+09:00,2.3,��,3.3,���쐼,18.9,82.9,0,0,0,0
2023-11-06T03:41:00+09:00,2.2,��,3.3,���쐼,18.8,82.7,0,0,0,0
2023-11-06T03:42:00+09:00,2.1,��,3.3,���쐼,18.7,82.6,0,0,0,0
2023-11-06T03:43:00+09:00,2,��,3.3,���쐼,18.7,82.5,0,0,0,0
2023-11-06T03:44:00+09:00,1.8,��,3.3,���쐼,18.5,82.3,0,0,0,0
2023-11-06T03:45:00+09:00,1.7,��,3.3,���쐼,18.3,82.5,0,0,0,0
2023-11-06T03:46:00+09:00,1.4,���k��,3.3,���쐼,18.1,82.6,0,0,0,0
2023-11-06T03:47:00+09:00,1.2,���k��,3.1,���쐼,18,83.2,0,0,0,0
2023-11-06T03:48:00+09:00,1,���k��,2.6,��,18,83.9,0,0,0,0
2023-11-06T03:49:00+09:00,0.9,�k��,2.1,��,18,84.6,0,0,0,0
2023-11-06T03:50:00+09:00,0.8,�k,1.8,��,18,85.1,0,0,0,0
2023-11-06T03:51:00+09:00,0.7,�k�k��,1.6,���쓌,18,85.7,0,0,0,0
2023-11-06T03:52:00+09:00,0.6,�k��,1.6,���쓌,18.1,86.5,0,0,0,0
2023-11-06T03:53:00+09:00,0.6,���k��,1.6,���쓌,18.2,86.6,0,0,0,0
2023-11-06T03:54:00+09:00,0.5,���k��,1.6,���쓌,18.3,86.6,0,0,0,0
2023-11-06T03:55:00+09:00,0.6,��,1.6,���쓌,18.4,86.7,0,0,0,0
2023-11-06T03:56:00+09:00,0.6,��,1.6,���쓌,18.3,86,0,0,0,0
2023-11-06T03:57:00+09:00,0.7,�k��,1.6,���쓌,18.3,85.7,0,0,0,0
2023-11-06T03:58:00+09:00,0.6,���k��,1.4,�k��,18.1,85.2,0,0,0,0
2023-11-06T03:59:00+09:00,0.7,���k��,1.6,�k�k��,18.2,85.7,0,0,0,0
2023-11-06T04:00:00+09:00,0.7,���k��,1.6,�k�k��,18,85.4,0,0,0,0
2023-11-06T04:01:00+09:00,0.8,��,1.6,�k�k��,17.9,85.3,0,0,0,0
2023-11-06T04:02:00+09:00,0.8,��,1.6,�k�k��,17.9,85.8,0,0,0,0
2023-11-06T04:03:00+09:00,0.9,��,1.6,�k�k��,17.9,86.5,0,0,0,0
2023-11-06T04:04:00+09:00,0.8,��,1.6,�k�k��,18.1,87.3,0,0,0,0
2023-11-06T04:05:00+09:00,0.8,��,1.6,�k�k��,18.2,87.3,0,0,0,0
2023-11-06T04:06:00+09:00,0.7,��,1.6,�k�k��,18.4,87.1,0,0,0,0
2023-11-06T04:07:00+09:00,0.8,��,1.8,��,18.6,87.3,0,0,0,0
2023-11-06T04:08:00+09:00,0.9,���쐼,2.8,���k��,18.5,86.3,0,0,0,0
2023-11-06T04:09:00+09:00,0.9,���쐼,2.8,���k��,18.6,86.3,0,0,0,0
2023-11-06T04:10:00+09:00,0.9,���쐼,2.8,���k��,18.7,85.6,0,0,0,0
2023-11-06T04:11:00+09:00,0.9,���쐼,2.8,���k��,18.6,84.8,0,0,0,0
2023-11-06T04:12:00+09:00,0.9,���쐼,2.8,���k��,18.3,83.7,0,0,0,0
2023-11-06T04:13:00+09:00,1,���쐼,2.8,���k��,18.1,83.6,0,0,0,0
2023-11-06T04:14:00+09:00,1,���쐼,2.8,���k��,18.3,85.1,0,0,0,0
2023-11-06T04:15:00+09:00,1.1,���쐼,2.8,���k��,18.7,86.5,0,0,0,0
2023-11-06T04:16:00+09:00,1.2,���쐼,2.8,���k��,18.8,85.8,0,0,0,0
2023-11-06T04:17:00+09:00,1.3,���쐼,2.8,���k��,18.8,85.1,0,0,0,0
2023-11-06T04:18:00+09:00,1.3,���쐼,2.7,���k��,18.7,84.4,0,0,0,0
2023-11-06T04:19:00+09:00,1.3,�쐼,2.7,���k��,18.6,83.7,0,0,0,0
2023-11-06T04:20:00+09:00,1.2,�쐼,2.7,���k��,18.6,83.8,0,0,0,0
2023-11-06T04:21:00+09:00,1.3,��쐼,2.7,���k��,18.5,83.7,0,0,0,0
2023-11-06T04:22:00+09:00,1.4,�쐼,2.7,���k��,18.5,84,0,0,0,0
2023-11-06T04:23:00+09:00,1.4,�쐼,2.7,���k��,18.6,84.5,0,0,0,0
2023-11-06T04:24:00+09:00,1.4,�쐼,2.7,���k��,18.7,84.9,0,0,0,0
2023-11-06T04:25:00+09:00,1.4,�쐼,2.7,���k��,18.7,84.5,0,0,0,0
2023-11-06T04:26:00+09:00,1.4,���쐼,2.7,���k��,18.7,84,0,0,0,0
2023-11-06T04:27:00+09:00,1.3,���쐼,2.7,���k��,18.8,84.3,0,0,0,0
2023-11-06T04:28:00+09:00,1.2,���쐼,2.7,��,18.8,83.9,0,0,0,0
2023-11-06T04:29:00+09:00,1.2,�쐼,2.7,��,18.7,83.4,0,0,0,0
2023-11-06T04:30:00+09:00,1.3,���쐼,3.1,��,18.7,83.5,0,0,0,0
2023-11-06T04:31:00+09:00,1.3,���쐼,3.1,��,19.3,83.9,0,0,0,0
2023-11-06T04:32:00+09:00,1.3,���쐼,3.1,��,19.7,82.6,0,0,0,0
2023-11-06T04:33:00+09:00,1.2,���쐼,3.1,��,19.8,79.4,0,0,0,0
2023-11-06T04:34:00+09:00,1.2,�쐼,3.1,��,19.8,77.3,0,0,0,0
2023-11-06T04:35:00+09:00,1.2,�쐼,3.1,��,19.7,76.3,0,0,0,0
2023-11-06T04:36:00+09:00,1.1,�쐼,3.1,��,19.6,76.3,0,0,0,0
2023-11-06T04:37:00+09:00,1.1,�쐼,3.1,��,19.5,76.3,0,0,0,0
2023-11-06T04:38:00+09:00,1.1,�쐼,3.1,��,19.3,76.8,0,0,0,0
2023-11-06T04:39:00+09:00,1.1,���쐼,3.1,��,19.2,77.6,0,0,0,0
2023-11-06T04:40:00+09:00,1,��,3.1,��,19.3,78.8,0,0,0,0
2023-11-06T04:41:00+09:00,0.9,��,2.5,��쐼,19.4,79.4,0,0,0,0
2023-11-06T04:42:00+09:00,0.9,���k��,1.9,��쓌,19.5,79.5,0,0,0,0
2023-11-06T04:43:00+09:00,0.8,�k��,1.5,��쐼,19.5,79.1,0,0,0,0
2023-11-06T04:44:00+09:00,0.8,�k��,1.5,��쐼,19.4,78.6,0,0,0,0
2023-11-06T04:45:00+09:00,0.8,�k��,1.5,��쐼,19.4,79,0,0,0,0
2023-11-06T04:46:00+09:00,0.8,�k��,1.4,�k�k��,19.3,78.9,0,0,0,0
2023-11-06T04:47:00+09:00,0.8,���k��,1.4,�k�k��,19.3,79,0,0,0,0
2023-11-06T04:48:00+09:00,0.8,���k��,1.4,�k�k��,19.3,79.3,0,0,0,0
2023-11-06T04:49:00+09:00,0.8,���k��,1.4,�k�k��,19.2,79.5,0,0,0,0
2023-11-06T04:50:00+09:00,0.7,�k��,1.4,�k�k��,19.1,79.5,0,0,0,0
2023-11-06T04:51:00+09:00,0.7,�k��,1.4,�k�k��,19,79.7,0,0,0,0
2023-11-06T04:52:00+09:00,0.7,�k��,1.6,���쐼,19.1,80.6,0,0,0,0
2023-11-06T04:53:00+09:00,0.8,���k��,1.6,���쐼,19,80.9,0,0,0,0
2023-11-06T04:54:00+09:00,0.8,���k��,1.6,���쐼,19.1,81,0,0,0,0
2023-11-06T04:55:00+09:00,0.9,���k��,1.8,��,19.1,81.3,0,0,0,0
2023-11-06T04:56:00+09:00,1,���k��,1.8,��,19.3,81.4,0,0,0,0
2023-11-06T04:57:00+09:00,0.9,��,1.8,��,19.3,80.6,0,0,0,0
2023-11-06T04:58:00+09:00,1,��,1.8,��,19.3,80.3,0,0,0,0
2023-11-06T04:59:00+09:00,1.1,��,2.2,��,19.3,80.4,0,0,0,0
2023-11-06T05:00:00+09:00,1.1,��,2.2,��,19.1,79.8,0,0,0,0
2023-11-06T05:01:00+09:00,1.1,��,2.2,��,19,79.6,0,0,0,0
2023-11-06T05:02:00+09:00,1.1,��,2.2,��,19,80.5,0,0,0,0
2023-11-06T05:03:00+09:00,1,���쐼,2.2,��,19.1,80.9,0,0,0,0
2023-11-06T05:04:00+09:00,0.9,���쐼,2.2,��,19.3,80.7,0,0,0,0
2023-11-06T05:05:00+09:00,0.9,���쐼,2.2,��,19.3,80.2,0,0,0,0
2023-11-06T05:06:00+09:00,0.9,���쐼,2.2,��,19.3,79.7,0,0,0,0
2023-11-06T05:07:00+09:00,0.9,���쐼,2.2,��,19.3,79.4,0,0,0,0
2023-11-06T05:08:00+09:00,0.9,���쐼,2.2,��,19.7,80.1,0,0,0,0
2023-11-06T05:09:00+09:00,0.8,�쐼,2.7,���쓌,19.9,78.9,0,0,0,0
2023-11-06T05:10:00+09:00,0.8,��,2.7,���쓌,19.9,76.6,0,0,0,0
2023-11-06T05:11:00+09:00,1,��,3.6,�쓌,20.3,74.3,0,0,0,0
2023-11-06T05:12:00+09:00,1.2,��,3.6,�쓌,20.9,69.2,0,0,0,0
2023-11-06T05:13:00+09:00,1.2,��,3.6,�쓌,21,65.9,0,0,0,0
2023-11-06T05:14:00+09:00,1.2,��,3.6,�쓌,20.6,66.9,0,0,0,0
2023-11-06T05:15:00+09:00,1.2,��,3.6,�쓌,20.2,68.7,0,0,0,0
2023-11-06T05:16:00+09:00,1.2,��쐼,3.6,�쓌,19.9,70.5,0,0,0,0
2023-11-06T05:17:00+09:00,1.2,�쐼,3.6,�쓌,19.8,72.5,0,0,0,0
2023-11-06T05:18:00+09:00,1.2,�쐼,3.6,�쓌,19.7,73.9,0,0,0,0
2023-11-06T05:19:00+09:00,1.2,�쐼,3.6,�쓌,20.1,73.8,0,0,0,0
2023-11-06T05:20:00+09:00,1.5,�쐼,7.7,��쓌,20.3,71.9,0,0,0,0
2023-11-06T05:21:00+09:00,1.5,�쐼,7.7,��쓌,20.7,68.9,0,0,0,0
2023-11-06T05:22:00+09:00,1.5,�쐼,7.7,��쓌,21,65.5,0,0,0,0
2023-11-06T05:23:00+09:00,1.7,�쐼,7.7,��쓌,21.2,63.1,0,0,0,0
2023-11-06T05:24:00+09:00,1.9,��,7.7,��쓌,21.4,61.5,0,0,0,0
2023-11-06T05:25:00+09:00,1.9,��,7.7,��쓌,21.4,60.2,0,0,0,0
2023-11-06T05:26:00+09:00,2.1,��쓌,7.7,��쓌,21,62.1,0,0,0,0
2023-11-06T05:27:00+09:00,2.2,��쓌,7.7,��쓌,20.7,64.4,0,0,0,0
2023-11-06T05:28:00+09:00,2.2,��쓌,7.7,��쓌,20.5,66.6,0,0,0,0
2023-11-06T05:29:00+09:00,2.1,��쓌,7.7,��쓌,20.4,67.8,0,0,0,0
2023-11-06T05:30:00+09:00,1.9,��,5.2,���쓌,20.3,68.5,0,0,0,0
2023-11-06T05:31:00+09:00,1.7,��,5.2,���쓌,20.3,68.8,0,0,0,0
2023-11-06T05:32:00+09:00,1.6,��,5.2,���쓌,20.3,69.4,0,0,0,0
2023-11-06T05:33:00+09:00,1.5,��쐼,5.2,���쓌,20.5,69.3,0,0,0,0
2023-11-06T05:34:00+09:00,1.5,��쐼,5,�쓌,20.8,67.5,0,0,0,0
2023-11-06T05:35:00+09:00,1.6,��쐼,5.6,���쓌,21.3,64,0,0,0,0
2023-11-06T05:36:00+09:00,1.7,��쐼,5.6,���쓌,21.5,60.8,0,0,0,0
2023-11-06T05:37:00+09:00,1.9,��,7.1,��쓌,21.6,59.4,0,0,0,0
2023-11-06T05:38:00+09:00,1.9,��,7.1,��쓌,21.5,58.6,0,0,0,0
2023-11-06T05:39:00+09:00,2,��쓌,7.1,��쓌,21.6,58.6,0,0,0,0
2023-11-06T05:40:00+09:00,2,��쓌,7.1,��쓌,21.5,58.8,0,0,0,0
2023-11-06T05:41:00+09:00,1.9,��쓌,7.1,��쓌,21.4,60.1,0,0,0,0
2023-11-06T05:42:00+09:00,1.9,�쓌,7.1,��쓌,21.1,61.4,0,0,0,0
2023-11-06T05:43:00+09:00,2,�쓌,7.1,��쓌,21.1,62.3,0,0,0,0
2023-11-06T05:44:00+09:00,1.8,�쓌,7.1,��쓌,21.1,62.2,0,0,0,0
2023-11-06T05:45:00+09:00,1.7,��쓌,7.1,��쓌,21,63.1,0,0,0,0
2023-11-06T05:46:00+09:00,1.5,��,7.1,��쓌,20.8,64.4,0,0,0,0
2023-11-06T05:47:00+09:00,1.3,��쐼,3.8,���쓌,20.7,65.4,0,0,0,0
2023-11-06T05:48:00+09:00,1.3,�쐼,3.8,���쓌,20.6,66.5,0,0,0,0
2023-11-06T05:49:00+09:00,1.3,���쐼,3.8,���쓌,20.5,67.3,0,0,0,0
2023-11-06T05:50:00+09:00,1.4,���쐼,3.8,���쓌,20.4,67.8,0,0,0,0
2023-11-06T05:51:00+09:00,1.5,�쐼,3.8,���쓌,20.4,68.2,0,0,0,0
2023-11-06T05:52:00+09:00,1.5,�쐼,3.8,���쓌,20.5,67.8,0,0,0,0
2023-11-06T05:53:00+09:00,1.5,�쐼,2.7,��쐼,20.8,66.4,0,0,0,0
2023-11-06T05:54:00+09:00,1.5,���쐼,2.7,��쐼,20.8,66,0,0,0,0
2023-11-06T05:55:00+09:00,1.4,���쐼,2.7,��쐼,20.6,66.4,0,0,0,0
2023-11-06T05:56:00+09:00,1.4,���쐼,2.7,��쐼,20.5,67,0,0,0,0
2023-11-06T05:57:00+09:00,1.5,���쐼,2.7,��쐼,20.5,67.2,0,0,0,0
2023-11-06T05:58:00+09:00,1.5,��,3.4,���k��,20.6,67.1,0,0,0,0
2023-11-06T05:59:00+09:00,1.6,��,3.4,���k��,20.7,66.3,0,0,0,0
2023-11-06T06:00:00+09:00,1.6,��,3.4,���k��,20.6,66.1,0,0,0,0
2023-11-06T06:01:00+09:00,1.6,���k��,3.4,���k��,20.5,66.3,0,0,0,0
2023-11-06T06:02:00+09:00,1.7,��,3.4,���k��,20.4,66.9,0,0,0,0
2023-11-06T06:03:00+09:00,1.7,��,3.4,���k��,20.3,67.5,0,0,0,0
2023-11-06T06:04:00+09:00,1.6,��,3.4,���k��,20.3,68.2,0,0,0,0
2023-11-06T06:05:00+09:00,1.6,��,3.4,���k��,20.3,68.5,0,0,0,0
2023-11-06T06:06:00+09:00,1.5,��,3.4,���k��,20.2,68.7,0,0,0,0
2023-11-06T06:07:00+09:00,1.5,���쐼,3.4,���k��,20.2,69.3,0,0,0,0
2023-11-06T06:08:00+09:00,1.4,���쐼,3,�k��,20.1,69.6,0,0,0,0
2023-11-06T06:09:00+09:00,1.2,���쐼,2.6,��,20,69.8,0,0,0,0
2023-11-06T06:10:00+09:00,1,��,2.6,��,20,70.2,0,0,0,0
2023-11-06T06:11:00+09:00,0.9,���쐼,1.8,�k��,20,70.5,0,0,0,0
2023-11-06T06:12:00+09:00,0.8,��,1.8,�k��,20,70.6,0,0,0,0
2023-11-06T06:13:00+09:00,0.8,��,1.8,�k��,20.1,70.6,0,0,0,0
2023-11-06T06:14:00+09:00,0.8,��,1.8,�k��,20.2,70.3,0,0,0,0
2023-11-06T06:15:00+09:00,0.9,��,1.9,���k��,20.3,70,0,0,0,0
2023-11-06T06:16:00+09:00,0.9,��,1.9,���k��,20.4,69.5,0,0,0,0
2023-11-06T06:17:00+09:00,1,��,2.4,���k��,20.6,68.7,0,0,0,0
2023-11-06T06:18:00+09:00,1.1,��,2.4,���k��,20.7,68,0,0,0,0
2023-11-06T06:19:00+09:00,1.2,��,2.4,���k��,20.7,66.9,0,0,0,0
2023-11-06T06:20:00+09:00,1.3,��,2.4,���k��,20.3,66.9,0,0,0,0
2023-11-06T06:21:00+09:00,1.4,��,2.4,���k��,20,68.1,0,0,0,0
2023-11-06T06:22:00+09:00,1.4,���쐼,2.4,���k��,20,69.8,0,0,0,0
2023-11-06T06:23:00+09:00,1.3,��,2.4,���k��,19.8,70.4,0,0,0,0
2023-11-06T06:24:00+09:00,1.3,��,2.4,���k��,19.8,71.2,0,0,0,0
2023-11-06T06:25:00+09:00,1.2,���쐼,2.4,���k��,19.8,71.5,0,0,0,0
2023-11-06T06:26:00+09:00,1.1,���쐼,2.4,���k��,19.8,71.4,0,0,0,0
2023-11-06T06:27:00+09:00,1,���쐼,2.2,��쐼,19.7,71.5,0,0,0,0
2023-11-06T06:28:00+09:00,1,�쐼,2.2,��쐼,19.8,71.9,0,0,0,0
2023-11-06T06:29:00+09:00,1,�쐼,2.2,��쐼,20.2,71.7,0,0,0,0
2023-11-06T06:30:00+09:00,1.1,���쐼,3.1,��,20.5,70.3,0,0,0,0
2023-11-06T06:31:00+09:00,1.3,���쐼,3.8,��,20.7,68.5,0,0,0,0
2023-11-06T06:32:00+09:00,1.5,��,3.8,��,20.7,66.7,0,0,0,0
2023-11-06T06:33:00+09:00,1.6,��,3.8,��,20.6,66,0,0,0,0
2023-11-06T06:34:00+09:00,1.7,��,3.8,��,20.5,66.2,0,0,0,0